Temperature
11 11 11 12 11 11 11 11 11 11 12 13 14 14 14 14 14 14 15 15 15 15 15 15 15 15 15 15 15 15 15 16 16 16 16 16 16 16
11 11 11 11 11 11 11 11 11 11 11 12 13 13 13 14 14 14 14 14 14 15 15 15 15 15 15 15 15 15 15 15 15 15 16 16 16 16
11 11 11 11 11 11 11 11 11 11 11 12 12 12 13 13 13 13 14 14 14 14 14 14 15 15 15 15 15 15 15 15 15 15 15 15 15 15
11 11 11 11 11 11 11 11 11 11 11 11 12 12 12 12 13 13 13 13 13 14 14 14 14 14 14 15 15 15 15 15 15 15 15 15 15 15
11 11 11 10 10 10 10 10 11 11 10 11 11 11 12 12 12 12 13 13 13 13 13 14 14 14 14 14 14 14 14 15 15 15 15 15 15 15
10 10 10 10 10 10 10 10 10 10 10 10 10 11 11 12 12 12 12 13 13 13 13 13 13 14 14 14 14 14 14 14 14 15 15 15 15 15
10 10 10 10 10 10 10 10 10 10 10 10 10 10 11 11 11 11 12 12 12 12 13 13 13 13 13 14 14 14 14 14 14 14 15 15 15 15
10 10 10 10 10 10 9 9 9 9 9 9 10 10 10 10 11 11 11 11 11 12 12 13 13 13 13 13 14 14 14 14 14 14 14 15 15 15
10 10 10 10 10 9 9 9 9 9 9 9 9 10 10 10 10 10 10 11 11 11 11 12 12 12 13 13 13 13 13 14 14 14 14 14 14 14
10 10 10 10 10 9 9 9 9 9 9 9 9 9 10 10 10 10 10 10 10 11 11 11 12 12 12 12 13 13 13 13 14 14 14 14 14 14
10 10 10 9 9 9 9 9 9 9 9 9 9 9 9 9 9 9 9 9 10 10 11 11 11 11 12 12 12 13 13 13 13 13 13 13 14 14
10 10 10 9 9 9 9 9 9 9 9 9 9 9 9 9 9 9 9 9 9 10 10 10 11 11 11 12 12 12 12 13 13 13 13 13 13 13
10 10 10 9 9 9 9 8 8 8 8 8 8 9 9 9 9 9 9 9 9 9 10 10 10 11 11 11 11 12 12 12 12 13 13 13 13 13
10 10 10 9 9 9 9 8 8 8 8 8 8 8 9 9 9 9 9 9 9 10 10 10 10 10 10 11 11 11 12 12 12 12 12 12 12 13
10 10 10 9 9 9 9 8 8 8 8 8 8 8 9 9 9 9 9 9 9 9 9 9 10 10 10 10 11 11 11 11 12 12 12 12 12 12
10 10 10 9 9 9 9 9 8 8 8 8 8 8 8 8 8 8 9 9 9 9 9 9 9 9 10 10 10 10 11 11 11 11 11 11 12 12
10 10 10 9 9 9 9 9 9 8 8 8 8 8 8 8 8 8 8 8 8 9 9 9 9 9 9 10 10 10 10 11 11 11 11 11 11 11
10 10 10 10 9 9 9 9 9 8 8 8 8 8 8 8 8 8 8 8 8 9 9 9 9 9 9 9 10 10 10 10 11 11 11 11 11 11
10 10 10 9 9 9 9 9 9 8 8 8 8 8 8 8 8 8 8 8 8 9 9 9 9 9 9 9 10 10 10 10 10 10 10 10 11 11
10 10 10 9 9 9 8 8 8 8 8 8 8 8 8 8 8 8 8 8 8 9 9 9 9 9 9 10 10 10 10 10 10 10 10 10 10 10
10 10 10 9 9 9 8 8 8 8 8 8 8 8 8 8 8 8 8 8 8 8 9 9 9 9 9 9 9 10 10 10 10 10 10 10 10 10
10 10 10 9 9 9 9 8 8 8 8 8 8 8 8 8 8 8 8 8 8 8 9 9 9 9 9 9 9 9 10 10 9 10 10 10 10 10
10 10 10 9 9 9 9 9 9 9 9 9 8 8 8 8 8 8 8 8 8 9 9 9 9 9 9 9 9 9 9 9 9 9 9 9 10 10
Wind_Speed
5 5 4 4 4 4 4 4 4 4 5 5 4 4 4 6 8 8 8 10 11 12 13 14 17 19 22 25 28 30 32 33 33 34 34 33 33 32
4 4 4 4 4 4 4 4 4 5 5 4 4 5 4 5 8 8 9 11 11 11 13 14 15 17 19 22 25 27 29 31 32 32 33 33 33 33
5 4 5 5 4 4 4 4 4 4 5 5 4 4 4 6 6 7 9 9 10 12 13 15 16 17 18 20 22 24 26 28 30 31 32 32 32 32
6 5 6 5 5 5 4 5 5 5 5 7 4 4 5 6 6 5 5 7 8 12 14 15 16 17 18 19 20 22 25 26 28 29 30 30 31 32
6 6 6 6 6 5 5 6 5 6 5 5 5 4 4 4 4 5 5 4 6 10 12 14 15 16 17 18 19 21 23 25 26 27 28 29 30 30
6 6 7 7 7 7 6 7 6 6 5 5 5 5 5 4 3 4 4 4 4 5 7 9 12 14 15 17 18 20 22 23 24 25 26 27 28 29
7 7 7 9 11 9 7 6 6 5 5 5 5 4 4 4 4 3 4 4 4 3 3 4 4 5 8 12 15 17 20 21 23 24 25 26 26 27
7 7 8 9 11 12 13 11 10 8 7 6 5 6 7 6 5 4 3 3 4 3 3 4 3 5 5 6 10 13 16 19 21 23 24 24 25 25
8 7 7 8 9 7 10 11 11 13 13 9 8 9 8 7 6 5 5 5 5 4 2 4 3 4 3 6 9 12 14 16 19 21 22 23 24 24
8 8 8 9 10 9 8 8 8 9 10 9 9 10 10 8 8 7 7 5 4 3 4 4 3 3 2 3 8 10 12 14 16 18 20 21 22 22
8 8 8 9 12 12 8 8 9 9 11 13 13 13 14 13 10 5 5 4 5 4 4 4 3 2 2 3 4 8 9 11 13 16 18 19 19 19
7 7 10 11 12 10 7 7 9 9 8 8 8 9 10 10 12 9 8 6 5 5 5 5 3 3 2 2 2 3 4 7 10 12 15 17 18 13
7 7 7 11 12 11 9 8 12 10 7 7 7 7 6 6 7 8 9 8 8 7 5 5 4 3 3 2 2 3 3 3 4 6 11 15 17 14
8 7 8 11 12 12 10 12 15 11 6 6 6 7 7 7 7 8 9 10 9 10 8 7 5 5 4 3 3 2 3 3 4 4 5 10 12 14
8 11 12 13 12 11 14 16 12 7 6 7 9 9 8 8 6 5 6 7 8 8 9 8 7 6 5 5 4 3 3 3 5 5 5 6 6 6
7 8 11 13 12 12 11 10 8 8 8 9 7 8 6 5 6 5 5 5 5 5 6 9 9 9 6 5 5 5 4 4 5 6 5 5 5 6
4 3 4 5 6 7 7 7 7 7 8 8 8 8 7 7 7 5 5 5 6 6 6 5 6 6 7 6 5 6 5 4 6 7 6 5 5 6
4 5 6 7 8 8 8 8 7 7 8 8 8 8 8 8 7 5 5 6 7 7 7 6 5 4 3 4 6 7 6 5 5 7 5 5 6 6
6 7 8 9 9 8 8 8 8 8 7 7 8 8 8 7 7 6 6 6 6 6 6 6 7 7 8 6 5 7 7 6 7 6 6 4 5 7
7 9 9 9 8 8 8 8 8 7 6 7 8 8 8 7 7 7 7 7 7 6 6 6 7 8 9 6 4 4 8 7 7 7 5 3 3 5
8 9 9 9 8 8 8 8 8 7 7 6 7 8 7 7 7 7 7 9 7 6 7 8 8 9 5 5 4 3 3 4 6 6 6 5 4 4
9 8 8 8 8 8 8 7 7 7 7 7 7 7 7 7 7 8 7 7 7 7 7 5 5 6 5 6 6 5 4 3 5 10 8 4 5 7
9 8 7 7 7 7 6 7 7 7 7 6 6 6 6 6 6 6 7 7 6 7 6 5 5 5 5 6 6 5 7 6 4 4 4 8 5 7
Wind_Direction
261 262 255 254 247 237 223 204 213 264 281 276 280 285 288 281 272 255 246 248 247 247 247 248 246 240 233 227 224 224 224 221 220 219 218 218 219 221
258 264 264 259 259 252 239 228 209 215 251 262 260 275 292 290 279 264 257 254 249 247 247 248 247 243 238 231 226 224 223 222 220 219 217 217 218 219
270 264 266 263 262 263 255 244 232 210 244 269 260 272 277 278 282 272 265 252 250 247 247 248 248 245 239 234 230 227 224 222 221 219 217 217 218 218
264 263 267 271 263 260 256 253 248 231 228 261 273 273 267 266 266 265 259 252 247 251 249 248 247 246 241 236 233 229 225 223 221 219 217 217 217 217
250 250 256 259 261 259 256 254 254 256 230 239 262 262 268 269 274 274 263 256 254 252 251 252 250 247 244 239 235 231 227 222 220 218 217 217 216 216
251 248 249 245 248 252 257 251 250 253 248 245 256 263 265 270 262 267 278 260 257 257 251 252 251 248 244 239 236 231 226 223 221 219 219 218 218 216
259 256 255 255 251 248 252 246 243 243 244 244 252 261 263 265 257 249 258 270 265 241 253 254 247 246 242 237 233 230 226 225 223 221 219 217 216 215
256 261 265 266 265 263 261 256 239 233 233 234 243 244 251 246 247 247 247 258 275 252 223 258 226 243 240 234 232 227 226 225 222 219 216 215 213 213
247 254 266 269 268 264 268 272 264 251 235 226 233 240 243 238 234 245 237 230 239 238 211 255 236 240 240 239 231 228 228 227 223 219 216 213 212 211
244 245 251 263 267 258 260 265 261 259 250 239 233 240 242 237 227 232 236 243 252 245 198 237 241 239 241 238 232 225 225 225 222 217 213 211 208 208
251 250 247 255 263 263 255 257 265 267 262 249 238 240 244 243 232 227 231 228 250 248 207 212 225 224 235 243 233 223 220 220 218 213 208 205 202 201
259 257 254 255 259 260 243 243 256 263 266 272 262 256 252 253 244 224 216 219 226 243 214 197 206 190 239 247 227 218 216 219 215 211 206 199 192 191
253 256 253 255 256 258 247 236 247 255 261 259 262 261 256 248 243 228 217 214 217 230 213 183 193 192 205 233 242 214 206 203 199 202 202 198 191 186
243 248 249 254 256 259 258 252 254 257 254 254 257 256 252 250 245 236 227 223 223 225 208 184 191 194 192 203 226 214 202 195 187 188 181 186 192 191
240 245 253 259 263 266 262 258 257 247 238 244 249 251 246 245 246 245 240 232 233 232 216 196 196 193 194 204 201 191 193 197 188 184 181 182 181 178
247 259 266 267 264 259 264 263 246 233 230 239 243 247 246 244 244 236 234 225 226 236 220 206 202 196 204 206 197 197 187 186 183 184 178 181 176 177
236 261 265 270 271 268 265 259 248 236 236 238 240 244 244 243 245 233 223 216 218 224 221 211 207 206 203 187 194 200 193 191 183 174 175 181 185 181
201 245 259 260 261 264 265 265 254 242 238 234 235 236 237 238 241 233 218 214 220 219 212 200 185 185 196 222 199 192 192 191 181 175 171 177 183 181
214 245 252 257 258 258 257 256 256 250 240 235 235 234 232 232 231 230 223 220 222 218 209 193 188 194 208 216 208 191 184 181 175 180 179 173 179 179
226 242 250 253 254 255 255 253 254 255 244 239 237 233 227 224 225 224 219 218 219 213 207 197 197 200 206 201 185 190 186 176 180 182 170 134 111 118
237 242 247 250 252 252 251 250 248 248 245 237 235 231 224 218 221 222 219 218 214 209 210 212 211 193 169 142 151 171 174 173 170 167 159 149 143 148
247 247 250 251 251 251 249 248 248 246 244 240 236 231 223 215 219 219 215 210 209 209 212 207 177 167 168 181 184 174 161 136 99 99 95 112 163 175
243 245 248 252 252 250 248 247 246 247 241 237 235 229 220 217 217 215 213 208 202 202 197 187 177 179 185 182 175 166 157 151 140 120 60 28 95 119
Height
1517 1517 1516 1515 1515 1515 1515 1514 1514 1511 1510 1510 1511 1512 1513 1512 1512 1513 1513 1513 1514 1515 1515 1516 1517 1519 1521 1523 1527 1531 1535 1539 1544 1548 1552 1556 1560 1564
1514 1512 1512 1511 1511 1510 1510 1510 1510 1509 1506 1505 1506 1507 1507 1507 1508 1508 1508 1508 1509 1509 1510 1510 1511 1512 1514 1516 1519 1523 1527 1531 1535 1540 1544 1548 1553 1557
1510 1508 1507 1507 1506 1505 1505 1505 1505 1504 1502 1500 1501 1502 1502 1502 1502 1502 1503 1503 1503 1504 1504 1505 1505 1505 1507 1509 1511 1514 1518 1522 1526 1531 1535 1540 1545 1549
1505 1504 1503 1502 1501 1501 1500 1500 1499 1499 1498 1495 1495 1496 1496 1497 1496 1497 1497 1497 1498 1498 1499 1499 1499 1499 1500 1502 1504 1507 1510 1514 1518 1522 1527 1532 1536 1541
1501 1500 1499 1498 1496 1496 1495 1494 1493 1493 1492 1491 1490 1490 1490 1491 1491 1491 1491 1492 1492 1493 1493 1493 1493 1493 1494 1495 1497 1499 1502 1505 1510 1514 1518 1523 1528 1532
1497 1496 1494 1493 1491 1490 1489 1488 1488 1487 1487 1486 1485 1484 1485 1485 1485 1485 1485 1486 1486 1487 1487 1487 1487 1487 1488 1489 1490 1492 1495 1498 1502 1506 1510 1515 1519 1524
1492 1491 1489 1488 1486 1485 1484 1483 1482 1481 1481 1480 1479 1479 1479 1480 1480 1480 1480 1480 1480 1481 1481 1481 1481 1481 1482 1483 1484 1485 1488 1491 1494 1498 1502 1507 1511 1516
1487 1485 1484 1482 1481 1479 1478 1477 1477 1476 1475 1474 1474 1473 1473 1474 1475 1475 1474 1474 1474 1476 1475 1475 1475 1475 1476 1477 1478 1480 1482 1484 1487 1490 1494 1499 1504 1508
1481 1479 1478 1476 1475 1474 1472 1471 1471 1470 1470 1469 1468 1467 1467 1468 1469 1469 1469 1469 1469 1470 1471 1469 1470 1470 1471 1471 1472 1474 1476 1478 1480 1483 1487 1491 1496 1501
1476 1474 1472 1471 1470 1468 1467 1465 1464 1464 1464 1463 1462 1461 1462 1462 1463 1463 1463 1463 1463 1464 1465 1464 1464 1465 1466 1466 1467 1468 1470 1472 1474 1476 1480 1484 1489 1494
1471 1469 1467 1465 1464 1463 1461 1459 1458 1457 1457 1456 1455 1454 1455 1455 1456 1456 1456 1457 1456 1457 1459 1459 1459 1460 1460 1460 1462 1463 1464 1466 1468 1470 1474 1478 1482 1487
1465 1463 1462 1460 1458 1457 1455 1454 1452 1451 1450 1449 1448 1448 1448 1448 1449 1449 1450 1451 1451 1451 1453 1454 1455 1456 1455 1455 1456 1458 1459 1461 1463 1465 1468 1472 1476 1480
1459 1457 1456 1454 1452 1451 1449 1447 1446 1445 1443 1442 1441 1440 1440 1441 1442 1443 1443 1444 1445 1445 1448 1449 1450 1451 1451 1451 1452 1453 1454 1456 1458 1460 1463 1466 1470 1473
1453 1452 1450 1448 1446 1445 1443 1441 1439 1438 1436 1435 1434 1433 1433 1433 1434 1436 1436 1437 1438 1440 1442 1444 1445 1446 1447 1447 1448 1448 1450 1451 1453 1455 1458 1461 1464 1467
1447 1445 1444 1442 1440 1438 1436 1434 1432 1430 1429 1427 1426 1426 1426 1427 1427 1428 1429 1430 1431 1433 1435 1437 1439 1441 1442 1443 1443 1444 1445 1447 1449 1451 1453 1456 1459 1462
1441 1439 1437 1435 1433 1431 1429 1427 1425 1424 1422 1421 1420 1420 1420 1420 1420 1421 1422 1423 1424 1426 1428 1430 1433 1435 1436 1438 1439 1440 1441 1443 1444 1447 1449 1452 1455 1459
1435 1433 1431 1429 1426 1424 1422 1420 1418 1417 1416 1414 1414 1413 1413 1413 1414 1415 1416 1417 1418 1419 1422 1425 1427 1429 1431 1433 1434 1435 1437 1439 1441 1443 1446 1449 1452 1455
1429 1426 1424 1422 1420 1417 1415 1413 1412 1410 1409 1408 1408 1407 1407 1407 1408 1409 1410 1411 1412 1414 1416 1419 1422 1424 1427 1428 1430 1431 1433 1435 1437 1440 1442 1446 1449 1453
1423 1420 1418 1416 1413 1411 1409 1407 1405 1404 1403 1402 1401 1401 1401 1401 1402 1403 1404 1405 1407 1409 1411 1414 1416 1419 1421 1422 1424 1427 1429 1431 1433 1436 1439 1442 1446 1450
1416 1414 1412 1409 1407 1404 1402 1401 1399 1398 1397 1396 1395 1395 1395 1395 1396 1397 1398 1400 1402 1404 1406 1408 1411 1413 1416 1418 1420 1423 1425 1428 1430 1432 1435 1439 1443 1447
1411 1408 1406 1403 1400 1398 1396 1394 1393 1392 1391 1390 1390 1389 1389 1390 1390 1391 1393 1395 1397 1399 1400 1403 1406 1410 1413 1415 1417 1419 1422 1425 1427 1429 1432 1436 1440 1443
1404 1402 1399 1397 1394 1392 1390 1389 1388 1387 1386 1385 1384 1384 1384 1384 1385 1386 1388 1389 1391 1394 1396 1399 1402 1405 1408 1410 1412 1415 1418 1421 1424 1427 1430 1433 1436 1439
1398 1396 1393 1391 1389 1387 1385 1384 1383 1382 1381 1380 1379 1379 1379 1379 1380 1381 1383 1385 1387 1389 1392 1394 1397 1400 1403 1406 1409 1412 1415 1418 1421 1424 1428 1431 1434 1438